Location: Ciserano
(45.5833°N, 9.6000°E)
Time: 15:11:43
(UTC+00:00)

FALCON 9 DEB - Visible Passes

Search period start: 12 June 2021 00:00
Search period end: 22 June 2021 00:00
Orbit: 369 x 380 km, 53.0° (Epoch: 11 June)

Date Brightness Start Highest point End Pass type
(mag) Time Alt. Az. Time Alt. Az. Time Alt. Az.
12 Jun 4.4 01:17:11 16° W 01:19:18 33° NNW 01:22:11 10° NE visible
13 Jun 3.3 00:17:16 58° NW 00:17:26 59° NNW 00:20:32 10° NE visible
13 Jun 5.3 01:51:04 10° WNW 01:53:35 22° N 01:56:07 10° NE visible
13 Jun 4.6 23:17:15 26° ENE 23:17:15 26° ENE 23:18:47 10° ENE visible
14 Jun 4.9 00:49:15 13° WNW 00:51:35 28° NNW 00:54:21 10° NE visible
14 Jun 5.5 02:25:31 10° NW 02:27:57 20° N 02:30:24 10° NE visible
14 Jun 3.9 23:49:05 39° NW 23:49:37 43° NNW 23:52:38 10° NE visible
15 Jun 5.5 01:23:25 10° NW 01:25:53 21° N 01:28:20 10° NE visible
15 Jun 3.8 22:48:43 41° NE 22:48:43 41° NE 22:50:53 10° ENE visible
16 Jun 5.2 00:21:09 10° WNW 00:23:48 24° NNW 00:26:26 10° NE visible
16 Jun 5.6 01:57:41 10° NW 02:00:12 22° N 02:02:43 10° ENE visible
16 Jun 4.9 21:47:59 18° ENE 21:47:59 18° ENE 21:48:58 10° ENE visible
16 Jun 4.5 23:19:54 18° WNW 23:21:45 34° NNW 23:24:39 10° NE visible
17 Jun 5.7 00:55:39 10° NW 00:58:05 20° N 01:00:29 10° NE visible
17 Jun 4.8 02:31:32 10° NW 02:34:25 33° NNE 02:37:16 10° E visible
17 Jun 5.2 20:46:18 12° E 20:46:18 12° E 20:46:37 10° E visible
17 Jun 3.3 22:18:06 24° WSW 22:19:48 60° NNW 22:22:53 10° NE visible
17 Jun 5.5 23:53:24 10° WNW 23:55:56 22° N 23:58:28 10° NE visible
18 Jun 5.4 01:29:43 10° NW 01:32:20 24° NNE 01:34:57 10° ENE visible
18 Jun 2.7 21:14:51 10° SW 21:17:56 63° SE 21:21:01 10° ENE visible
18 Jun 5.0 22:51:02 10° W 22:53:49 28° NNW 22:56:35 10° NE visible
19 Jun 5.7 00:27:44 10° NW 00:30:11 20° N 00:32:37 10° NE visible
19 Jun 4.3 02:03:27 10° NW 02:06:27 41° NNE 02:09:25 10° E visible
19 Jun 3.8 20:13:30 10° SSW 20:16:11 27° SE 20:18:52 10° ENE visible
19 Jun 4.0 21:48:45 10° W 21:51:46 44° NNW 21:54:47 10° NE visible
19 Jun 5.7 23:25:32 10° WNW 23:27:59 21° N 23:30:27 10° NE visible
20 Jun 5.2 01:01:38 10° NW 01:04:23 27° NNE 01:07:06 10° ENE visible
20 Jun 2.7 02:37:11 10° WNW 02:40:18 70° SSW 02:43:23 10° SE visible
20 Jun 2.8 20:46:41 10° WSW 20:49:47 89° NW 20:52:55 10° ENE visible
20 Jun 5.4 22:23:09 10° WNW 22:25:48 24° NNW 22:28:27 10° NE visible
20 Jun 5.6 23:59:42 10° NW 00:02:12 21° N 00:04:42 10° ENE visible
21 Jun 3.6 01:35:18 10° NW 01:38:22 55° NNE 01:41:26 10° ESE visible
21 Jun 4.6 21:20:45 10° W 21:23:39 35° NNW 21:26:35 10° NE visible
21 Jun 5.7 22:57:32 10° NW 22:59:58 20° N 23:02:24 10° NE visible
